Regional Weather Roundup
Issued by NWS

Home | Current Version | Previous Version | Text Only | Print | Product List | Glossary Off
Versions: 1 2 3 4 5 6 7 8 9 10 11 12 13 14 15 16 17 18 19 20 21 22 23 24 25 26 27

000
ASUS45 KPSR 290010
RWRAZ

ARIZONA HOURLY REGIONAL WEATHER ROUNDUP
NATIONAL WEATHER SERVICE PHOENIX AZ
500 PM MST THU JUL 28 2016

NOTE: FAIR INDICATES FEW OR NO CLOUDS BELOW 12,000 FEET WITH NO
SIGNIFICANT WEATHER AND/OR OBSTRUCTIONS TO VISIBILITY.

AZZ001>003-036-290100-
NORTHWEST ARIZONA

CITY           SKY/WX    TMP DP  RH WIND       PRES   REMARKS
BULLHEAD CITY  SUNNY    117  46  10 CALM      29.64F HX 111
KINGMAN        MOSUNNY  100  48  17 E18G36    29.97R
6HR MIN TEMP: 100; 6HR MAX TEMP: 108;

$$

AZZ004>008-015-016-018-290100-
NORTH CENTRAL ARIZONA

CITY           SKY/WX    TMP DP  RH WIND       PRES   REMARKS
GRAND CANYON   PTSUNNY   87  39  18 NW6       30.26R
6HR MIN TEMP:  69; 6HR MAX TEMP:  98; 6HR PCP:  0.12;

WILLIAMS       CLOUDY    82  45  26 NW8       30.32S
PRESCOTT       PTSUNNY   84  53  34 W15G23    30.10R
6HR MIN TEMP:  84; 6HR MAX TEMP: 100;

FLAGSTAFF      PTSUNNY   83  42  23 CALM      30.26F
6HR MIN TEMP:  79; 6HR MAX TEMP:  87;

PAYSON         TSTM      79  57  47 SW13G38   30.12R VSB 3/4
PAGE           MOSUNNY  105  32   8 NW14G33   29.96S
6HR MIN TEMP:  97; 6HR MAX TEMP: 109;

$$

AZZ009>014-017-290100-
NORTHEAST ARIZONA

CITY           SKY/WX    TMP DP  RH WIND       PRES   REMARKS
WINSLOW        MOSUNNY  103  31   8 MISG      30.02F
6HR MIN TEMP:  96; 6HR MAX TEMP: 105;

SAINT JOHNS    LGT RAIN  89  42  19 SE17G25   30.16R
6HR MIN TEMP:  88; 6HR MAX TEMP:  99; 6HR PCP: TRACE;

WINDOW ROCK    MOSUNNY   87  38  17 S12G22    30.21F
6HR MIN TEMP:  87; 6HR MAX TEMP:  97;

SHOW LOW       PTSUNNY   79  45  29 SW18G25   30.23S
$$

AZZ023-290100-
GREATER PHOENIX AREA

CITY           SKY/WX    TMP DP  RH WIND       PRES   REMARKS
PHOENIX        MOSUNNY  110  56  17 W7        29.71F HX 109
6HR MIN TEMP: 100; 6HR MAX TEMP: 110;

BUCKEYE        SUNNY    109  55  17 S7        29.72F HX 108
GLENDALE       MOSUNNY  111  55  16 SE7       29.73S HX 110
LUKE AFB       SUNNY    111  56  16 S9        29.70  HX 110
6HR MIN TEMP: 101; 6HR MAX TEMP: 112;

DEER VALLEY    SUNNY    109  56  17 SW8       29.74F HX 108
6HR MIN TEMP:  98; 6HR MAX TEMP: 109;

SCOTTSDALE     SUNNY    109  54  16 SW8       29.75F HX 107
6HR MIN TEMP: 100; 6HR MAX TEMP: 110;

MESA-GATEWAY   MOSUNNY  108  55  18 W6        29.75F HX 106
CHANDLER       MOSUNNY  109  54  16 S7        29.73F HX 108
$$

AZZ027-028-290100-
SOUTHWEST MARICOPA COUNTY AND PINAL COUNTY

CITY           SKY/WX    TMP DP  RH WIND       PRES   REMARKS
CASA GRANDE    SUNNY    108  55  18 W7        29.78F HX 106
6HR MIN TEMP: 100; 6HR MAX TEMP: 109;

$$

AZZ503-504-507>509-290100-
SOUTHEAST ARIZONA

CITY           SKY/WX    TMP DP  RH WIND       PRES   REMARKS
TUCSON         SUNNY    105  55  19 N7        29.86F HX 104
6HR MIN TEMP:  94; 6HR MAX TEMP: 105;

RYAN FIELD     SUNNY    104  54  18 NE6       29.85F HX 102
NOGALES        MOSUNNY   96  58  27 NW3       29.97F
6HR MIN TEMP:  89; 6HR MAX TEMP:  97;

DOUGLAS        SUNNY     94  53  25 VRB7      29.99F
6HR MIN TEMP:  87; 6HR MAX TEMP:  96;

SAFFORD        PTSUNNY  101  49  17 NW6       29.90S
6HR MIN TEMP:  92; 6HR MAX TEMP: 104;

$$

AZZ020-021-025-026-031-290100-
SOUTHWEST ARIZONA

CITY           SKY/WX    TMP DP  RH WIND       PRES   REMARKS
YUMA           NOT AVBL
$$

CAZ031-033-041-043-047-048-061-290100-
SOUTHERN CALIFORNIA

CITY           SKY/WX    TMP DP  RH WIND       PRES   REMARKS
DOWNTOWN L.A.  SUNNY     81  62  52 VRB3      29.81F
L.A. AIRPORT   MOSUNNY   77  64  64 W12       29.83F
6HR MIN TEMP:  76; 6HR MAX TEMP:  79;

SAN DIEGO      MOSUNNY   77  63  61 NW8       29.85F
6HR MIN TEMP:  77; 6HR MAX TEMP:  81;

BURBANK        SUNNY     89  57  33 S14       29.82S
6HR MIN TEMP:  86; 6HR MAX TEMP:  94;

ONTARIO        MOSUNNY   97  49  19 SW15      29.82F
6HR MIN TEMP:  89; 6HR MAX TEMP:  99;

RIVERSIDE      SUNNY     98  50  19 W10       29.80F
6HR MIN TEMP:  90; 6HR MAX TEMP: 100;

PALM SPRINGS   MOSUNNY  114  54  14 VRB7      29.69F HX 112
6HR MIN TEMP: 103; 6HR MAX TEMP: 115;

EL CENTRO NAS  MOSUNNY  113  59  17 E8        29.64F HX 114
6HR MIN TEMP: 104; 6HR MAX TEMP: 114;

IMPERIAL       SUNNY    114  65  20 MISG      29.62F HX 119
6HR MIN TEMP: 105; 6HR MAX TEMP: 116;

NEEDLES        CLOUDY   118  49  10 SW9       29.67F HX 113
6HR MIN TEMP: 110; 6HR MAX TEMP: 119;

$$

NVZ020-UTZ003-290100-
SOUTHERN NEVADA-UTAH

CITY           SKY/WX    TMP DP  RH WIND       PRES   REMARKS
LAS VEGAS      PTSUNNY  113  33   6 CALM      29.74F HX 105
6HR MIN TEMP: 103; 6HR MAX TEMP: 115;

SALT LAKE CITY MOSUNNY  101  33   9 N7        30.02F
6HR MIN TEMP:  94; 6HR MAX TEMP: 102;

$$

NMZ009-TXZ055-290100-
NEW MEXICO-WEST TEXAS

CITY           SKY/WX    TMP DP  RH WIND       PRES   REMARKS
ALBUQUERQUE    CLOUDY    91  43  18 SE25      30.10S
6HR MIN TEMP:  86; 6HR MAX TEMP:  98;

EL PASO        MOSUNNY   96  50  20 E14       29.98F
6HR MIN TEMP:  91; 6HR MAX TEMP:  98;

$$


........................KEY........................
SKY/WX - SKY CONDITION/WEATHER
TMP    - TEMPERATURE IN FAHRENHEIT
DP     - DEW POINT IN FAHRENHEIT
RH     - RELATIVE HUMIDITY IN PERCENT
WIND   - DIRECTION AND SPEED IN MILES PER HOUR (MPH)
VRB    - VARIABLE WIND DIRECTION
PRES   - MEAN SEA LEVEL PRESSURE IN INCHES OF MERCURY
         F - FALLING PRESSURE   R - RISING PRESSURE
         S - STEADY PRESSURE
VSB    - VISIBILITY IN MILES
HX     - HEAT INDEX IN FAHRENHEIT
WCI    - WIND CHILL INDEX IN FAHRENHEIT
TC     - TEMPERATURE IN CELSIUS WHICH IS ALSO KNOWN AS
         TEMPERATURE IN CENTIGRADE
AFB    - AIR FORCE BASE
         LUKE AFB IS LUKE AIR FORCE BASE
         DAVIS-MONTHAN IS DAVIS-MONTHAN AIR FORCE BASE
NAS    - NAVAL AIR STATION
         EL CENTRO NAS IS EL CENTRO NAVAL AIR STATION
N/A    - NOT AVAILABLE





USA.gov is the U.S. government's official web portal to all federal, state and local government web resources and services.